EW3591 Weather Reports


Display with metric or nautical units.
time (UTC)temp
F
wind
direction
speed
MPH
gust
MPH
rain 1hr
in
rain 24hr
in
rain mn
in
humidity
%
barometer
mb
20260505171003 63 176 6.0 21.0 0.00 0.00 0.00 67 1004.5
20260505170803 63 264 6.0 14.0 0.00 0.00 0.00 67 1004.6
20260505170603 63 223 6.0 14.0 0.00 0.00 0.00 67 1004.6
20260505170402 63 286 6.0 14.0 0.00 0.00 0.00 68 1004.7
20260505170202 63 208 7.0 14.0 0.00 0.00 0.00 68 1004.6
20260505170002 63 160 3.0 14.0 0.00 0.00 0.00 68 1004.7
20260505165801 64 180 3.0 10.0 0.00 0.00 0.00 69 1004.6
20260505165601 64 211 4.0 10.0 0.00 0.00 0.00 68 1004.5
20260505165401 64 46 3.0 10.0 0.00 0.00 0.00 68 1004.6
20260505165201 64 249 4.0 11.0 0.00 0.00 0.00 69 1004.6
20260505165000 64 163 3.0 11.0 0.00 0.00 0.00 68 1004.6
20260505164800 64 44 3.0 11.0 0.00 0.00 0.00 68 1004.6
20260505164600 65 238 4.0 13.0 0.00 0.00 0.00 68 1004.5
20260505164359 65 67 4.0 14.0 0.00 0.00 0.00 68 1004.5
20260505164159 65 68 3.0 14.0 0.00 0.00 0.00 69 1004.5
20260505163959 64 70 3.0 14.0 0.00 0.00 0.00 70 1004.5
20260505163758 64 90 4.0 14.0 0.00 0.00 0.00 71 1004.3
20260505163558 64 251 3.0 14.0 0.00 0.00 0.00 71 1004.5
20260505163358 63 228 3.0 10.0 0.00 0.00 0.00 72 1004.3
20260505163158 63 120 4.0 10.0 0.00 0.00 0.00 72 1004.4
20260505162957 63 122 5.0 10.0 0.00 0.00 0.00 72 1004.3
20260505162757 63 178 4.0 10.0 0.00 0.00 0.00 73 1004.4
20260505162557 62 187 3.0 10.0 0.00 0.00 0.00 73 1004.6
20260505162356 62 233 5.0 12.0 0.00 0.00 0.00 73 1004.4
20260505162156 62 115 5.0 22.0 0.00 0.00 0.00 72 1004.5
20260505161956 63 187 4.0 22.0 0.00 0.00 0.00 72 1004.5
20260505161755 63 184 5.0 22.0 0.00 0.00 0.00 72 1004.5
20260505161555 63 165 7.0 22.0 0.00 0.00 0.00 72 1004.5
20260505161355 63 189 6.0 22.0 0.00 0.00 0.00 72 1004.6
20260505161155 63 231 6.0 18.0 0.00 0.00 0.00 72 1004.6
20260505160954 63 210 7.0 19.0 0.00 0.00 0.00 71 1004.5
20260505160754 64 199 6.0 19.0 0.00 0.00 0.00 72 1004.5
20260505160554 64 157 6.0 19.0 0.00 0.00 0.00 72 1004.3
20260505160353 64 155 7.0 19.0 0.00 0.00 0.00 72 1004.3
20260505160153 64 250 8.0 19.0 0.00 0.00 0.00 71 1004.2
20260505153349 66 261 4.0 11.0 0.00 0.00 0.00 72 1003.3
20260505153149 66 198 5.0 11.0 0.00 0.00 0.00 72 1003.3
20260505152948 66 119 4.0 11.0 0.00 0.00 0.00 73 1003.3
20260505152748 65 131 4.0 15.0 0.00 0.00 0.00 74 1003.3
20260505152548 65 157 5.0 15.0 0.00 0.00 0.00 74 1003.3
20260505152347 65 137 4.0 15.0 0.00 0.00 0.00 75 1003.3
20260505152147 64 254 5.0 15.0 0.00 0.00 0.00 75 1003.3
20260505151947 64 219 6.0 15.0 0.00 0.00 0.00 75 1003.3
20260505151746 64 239 4.0 13.0 0.00 0.00 0.00 76 1003.4
20260505151546 63 273 3.0 12.0 0.00 0.00 0.00 77 1003.4
20260505151346 63 211 4.0 13.0 0.00 0.00 0.00 77 1003.4
20260505151145 63 278 5.0 13.0 0.00 0.00 0.00 76 1003.3
20260505150945 63 172 5.0 16.0 0.00 0.00 0.00 77 1003.4
20260505150745 63 314 6.0 16.0 0.00 0.00 0.00 77 1003.5
20260505150545 63 96 6.0 18.0 0.00 0.00 0.00 76 1003.7
20260505150344 64 128 5.0 18.0 0.00 0.00 0.00 76 1003.4
20260505150144 64 207 7.0 18.0 0.00 0.00 0.00 76 1003.5
20260505140536 64 212 6.0 17.0 0.00 0.00 0.00 78 1001.7
20260505140335 63 198 7.0 17.0 0.00 0.00 0.00 77 1001.6
20260505140135 63 217 7.0 16.0 0.00 0.00 0.00 78 1001.8
20260505130247 61 186 5.0 18.0 0.00 0.00 0.00 78 1001.4
20260505124845 61 240 5.0 22.0 0.00 0.00 0.00 78 1000.8
20260505124644 61 200 7.0 22.0 0.00 0.00 0.00 78 1000.7
20260505124444 61 191 8.0 22.0 0.00 0.00 0.00 78 1000.8
20260505124244 61 199 7.0 16.0 0.00 0.00 0.00 78 1000.7
20260505124044 61 211 7.0 17.0 0.00 0.00 0.00 78 1000.7
20260505123843 61 196 5.0 17.0 0.00 0.00 0.00 78 1000.6
20260505123643 61 188 7.0 17.0 0.00 0.00 0.00 78 1000.7
20260505123443 61 206 8.0 17.0 0.00 0.00 0.00 78 1000.7
20260505123242 61 213 8.0 17.0 0.00 0.00 0.00 78 1000.7
20260505123042 61 205 7.0 16.0 0.00 0.00 0.00 78 1000.6
20260505122842 61 215 6.0 14.0 0.00 0.00 0.00 78 1000.7
20260505122641 61 215 7.0 16.0 0.00 0.00 0.00 78 1000.7
20260505122441 61 227 6.0 16.0 0.00 0.00 0.00 78 1000.7
20260505122241 61 214 6.0 16.0 0.00 0.00 0.00 78 1000.7
20260505122041 61 224 6.0 16.0 0.00 0.00 0.00 78 1000.7
20260505121840 61 214 8.0 19.0 0.00 0.00 0.00 78 1000.6
20260505121640 61 211 8.0 22.0 0.00 0.00 0.00 78 1000.6
20260505121440 61 187 7.0 23.0 0.00 0.00 0.00 78 1000.6
20260505121239 61 194 7.0 23.0 0.00 0.00 0.00 78 1000.6
20260505121039 61 201 8.0 23.0 0.00 0.00 0.00 78 1000.6
20260505120839 61 210 8.0 23.0 0.00 0.00 0.00 78 1000.6
20260505120638 61 194 8.0 23.0 0.00 0.00 0.00 79 1000.5
20260505120438 60 205 6.0 20.0 0.00 0.00 0.00 79 1000.7
20260505120238 60 228 6.0 20.0 0.00 0.00 0.00 79 1000.5
20260505120038 60 223 8.0 20.0 0.00 0.00 0.00 78 1000.6
20260505115837 60 232 7.0 20.0 0.00 0.00 0.00 78 1000.5
20260505115637 61 213 5.0 16.0 0.00 0.00 0.00 78 1000.5
20260505115437 61 188 5.0 16.0 0.00 0.00 0.00 78 1000.6
20260505115236 61 214 6.0 16.0 0.00 0.00 0.00 78 1000.6
20260505115036 61 207 6.0 21.0 0.00 0.00 0.00 78 1000.6
20260505114836 61 193 6.0 21.0 0.00 0.00 0.00 78 1000.7
20260505114635 61 220 6.0 21.0 0.00 0.00 0.00 78 1000.5
20260505114435 61 214 6.0 21.0 0.00 0.00 0.00 78 1000.5
20260505114235 61 194 6.0 21.0 0.00 0.00 0.00 78 1000.5
20260505114035 61 216 6.0 21.0 0.00 0.00 0.00 78 1000.5
20260505113834 61 219 6.0 16.0 0.00 0.00 0.00 78 1000.5
20260505113634 61 233 4.0 16.0 0.00 0.00 0.00 78 1000.5
20260505113434 61 218 4.0 16.0 0.00 0.00 0.00 77 1000.4
20260505113233 61 222 6.0 16.0 0.00 0.00 0.00 77 1000.4
20260505113033 61 171 7.0 16.0 0.00 0.00 0.00 77 1000.3
20260505112833 61 224 5.0 15.0 0.00 0.00 0.00 77 1000.4
20260505112632 61 214 6.0 16.0 0.00 0.00 0.00 77 1000.4
20260505112432 61 197 6.0 17.0 0.00 0.00 0.00 77 1000.3
20260505112232 61 223 5.0 17.0 0.00 0.00 0.00 77 1000.4
20260505112032 60 233 5.0 17.0 0.00 0.00 0.00 77 1000.3
20260505111831 61 253 5.0 17.0 0.00 0.00 0.00 77 1000.3
20260505111631 61 230 7.0 17.0 0.00 0.00 0.00 77 1000.2
20260505111431 60 226 6.0 16.0 0.00 0.00 0.00 78 1000.1
20260505111230 60 236 5.0 16.0 0.00 0.00 0.00 78 1000.2
20260505111030 60 197 7.0 16.0 0.00 0.00 0.00 78 1000.2
20260505110830 60 194 6.0 20.0 0.00 0.00 0.00 78 1000.2
20260505110629 60 228 4.0 20.0 0.00 0.00 0.00 78 1000.2
20260505110429 60 237 5.0 20.0 0.00 0.00 0.00 78 1000.2
20260505110229 60 207 6.0 20.0 0.00 0.00 0.00 78 1000.2
20260505102023 58 201 7.0 20.0 0.00 0.00 0.00 84 999.9
20260505101822 58 195 6.0 15.0 0.00 0.00 0.00 84 999.9
20260505101622 58 194 6.0 15.0 0.00 0.00 0.00 85 999.8
20260505101422 58 206 7.0 13.0 0.00 0.00 0.00 85 999.8
20260505101221 58 218 6.0 12.0 0.00 0.00 0.00 85 999.8
20260505101021 57 211 4.0 12.0 0.00 0.00 0.00 86 999.8
20260505100821 57 196 5.0 11.0 0.00 0.00 0.00 86 999.8
20260505100620 57 196 4.0 11.0 0.00 0.00 0.00 86 999.8
20260505100420 57 230 4.0 11.0 0.00 0.00 0.00 86 999.7
20260505100220 57 225 4.0 11.0 0.00 0.00 0.00 86 999.5
20260505100019 57 229 3.0 11.0 0.00 0.00 0.00 86 999.5
20260505095819 57 230 3.0 11.0 0.00 0.00 0.00 86 999.4
20260505095619 57 224 6.0 11.0 0.00 0.00 0.00 86 999.4
20260505095419 57 208 6.0 11.0 0.00 0.00 0.00 87 999.2
20260505095218 57 211 5.0 11.0 0.00 0.00 0.00 87 999.2
20260505095018 57 219 6.0 11.0 0.00 0.00 0.00 87 999.3
20260505094818 57 206 5.0 11.0 0.00 0.00 0.00 87 999.2
20260505094617 57 198 4.0 11.0 0.00 0.00 0.00 87 999.3
20260505094417 57 204 5.0 11.0 0.00 0.00 0.00 87 999.2
20260505094217 57 218 4.0 11.0 0.00 0.00 0.00 87 999.2
20260505094017 56 214 3.0 9.0 0.00 0.00 0.00 87 999.3
20260505093816 56 225 3.0 9.0 0.00 0.00 0.00 87 999.3
20260505093616 56 216 4.0 9.0 0.00 0.00 0.00 87 999.3
20260505093416 56 212 3.0 9.0 0.00 0.00 0.00 87 999.4
20260505093215 56 224 4.0 10.0 0.00 0.00 0.00 87 999.3
20260505093015 56 200 5.0 11.0 0.00 0.00 0.00 87 999.3
20260505092815 56 213 5.0 12.0 0.00 0.00 0.00 87 999.3
20260505092614 56 212 5.0 12.0 0.00 0.00 0.00 87 999.3
20260505092414 56 212 5.0 12.0 0.00 0.00 0.00 87 999.2
20260505092214 57 220 4.0 12.0 0.00 0.00 0.00 87 999.2
20260505092013 57 218 5.0 12.0 0.00 0.00 0.00 87 999.2
20260505091813 57 218 5.0 12.0 0.00 0.00 0.00 87 999.2
20260505091613 57 220 6.0 12.0 0.00 0.00 0.00 87 999.2
20260505091413 57 207 7.0 12.0 0.00 0.00 0.00 87 999.2
20260505091212 57 224 6.0 12.0 0.00 0.00 0.00 86 999.2
20260505091012 57 224 4.0 15.0 0.00 0.00 0.00 86 999.2
20260505090812 57 209 5.0 15.0 0.00 0.00 0.00 86 999.2
20260505090611 57 208 6.0 15.0 0.00 0.00 0.00 86 999.2
20260505090411 57 203 5.0 15.0 0.00 0.00 0.00 86 999.2
20260505090211 57 207 7.0 15.0 0.00 0.00 0.00 86 999.2
20260505090010 57 220 5.0 15.0 0.00 0.00 0.00 86 999.2
20260505085810 57 223 6.0 15.0 0.00 0.00 0.00 86 999.1
20260505085610 57 208 7.0 15.0 0.00 0.00 0.00 86 999.1
20260505085410 57 199 6.0 13.0 0.00 0.00 0.00 86 999.1
20260505085209 57 215 5.0 13.0 0.00 0.00 0.00 86 999.0
20260505085009 57 226 5.0 12.0 0.00 0.00 0.00 85 999.1
20260505084809 57 205 7.0 12.0 0.00 0.00 0.00 85 999.0
20260505084608 58 190 6.0 12.0 0.00 0.00 0.00 85 999.0
20260505084408 58 213 5.0 13.0 0.00 0.00 0.00 85 999.0
20260505084208 58 234 4.0 14.0 0.00 0.00 0.00 85 998.9
20260505084007 58 227 5.0 14.0 0.00 0.00 0.00 85 999.0
20260505083807 58 207 7.0 14.0 0.00 0.00 0.00 85 999.0
20260505083607 58 217 6.0 14.0 0.00 0.00 0.00 85 999.0
20260505083407 58 213 6.0 14.0 0.00 0.00 0.00 85 999.0
20260505083206 58 220 6.0 14.0 0.00 0.00 0.00 84 998.9
20260505083006 58 216 5.0 14.0 0.00 0.00 0.00 84 999.0
20260505082806 58 208 5.0 12.0 0.00 0.00 0.00 84 998.9
20260505082605 58 216 6.0 13.0 0.00 0.00 0.00 84 999.0
20260505082405 58 220 6.0 13.0 0.00 0.00 0.00 84 999.0
20260505082205 58 219 5.0 13.0 0.00 0.00 0.00 84 999.0
20260505082004 58 219 6.0 14.0 0.00 0.00 0.00 84 999.0
20260505081804 58 211 6.0 14.0 0.00 0.00 0.00 84 999.0
20260505081604 59 210 5.0 14.0 0.00 0.00 0.00 84 999.1
20260505081404 59 218 6.0 14.0 0.00 0.00 0.00 83 999.2
20260505081203 59 222 6.0 14.0 0.00 0.00 0.00 83 999.2
20260505081003 59 219 7.0 14.0 0.00 0.00 0.00 83 999.3
20260505080803 59 211 6.0 14.0 0.00 0.00 0.00 83 999.3
20260505080602 59 213 6.0 11.0 0.00 0.00 0.00 83 999.3
20260505080402 59 218 6.0 11.0 0.00 0.00 0.00 83 999.4
20260505080202 59 222 3.0 8.0 0.00 0.00 0.00 82 999.5
20260505080002 59 211 5.0 8.0 0.00 0.00 0.00 82 999.4
20260505075801 59 227 4.0 8.0 0.00 0.00 0.00 82 999.5
20260505075601 59 243 4.0 8.0 0.00 0.00 0.00 82 999.5
20260505075401 59 238 3.0 10.0 0.00 0.00 0.00 82 999.5
20260505075200 60 228 4.0 12.0 0.00 0.00 0.00 82 999.5
20260505075000 60 223 3.0 13.0 0.00 0.00 0.00 82 999.6
20260505074800 60 207 3.0 16.0 0.00 0.00 0.00 82 999.6
20260505074559 60 219 5.0 16.0 0.00 0.00 0.00 81 999.5
20260505074359 60 214 5.0 16.0 0.00 0.00 0.00 81 999.7
20260505074159 60 213 5.0 16.0 0.00 0.00 0.00 81 999.6
20260505073958 60 228 5.0 16.0 0.00 0.00 0.00 81 999.6
20260505073758 60 225 5.0 15.0 0.00 0.00 0.00 81 999.5
20260505073558 60 221 7.0 15.0 0.00 0.00 0.00 81 999.5
20260505073358 60 219 6.0 15.0 0.00 0.00 0.00 81 999.5
20260505073157 60 214 5.0 15.0 0.00 0.00 0.00 81 999.5
20260505072957 60 212 6.0 15.0 0.00 0.00 0.00 81 999.5
20260505072757 60 211 9.0 15.0 0.00 0.00 0.00 81 999.5
20260505072556 60 211 8.0 14.0 0.00 0.00 0.00 81 999.5
20260505072356 60 227 6.0 15.0 0.00 0.00 0.00 81 999.5
20260505072156 60 238 6.0 15.0 0.00 0.00 0.00 81 999.7
20260505071955 60 226 7.0 15.0 0.00 0.00 0.00 82 999.6
20260505071755 60 218 7.0 15.0 0.00 0.00 0.00 82 999.5
20260505071555 60 224 8.0 18.0 0.00 0.00 0.00 81 999.6
20260505071355 60 222 6.0 18.0 0.00 0.00 0.00 81 999.5
20260505071154 60 209 7.0 18.0 0.00 0.00 0.00 81 999.5
20260505070954 61 206 8.0 18.0 0.00 0.00 0.00 81 999.4
20260505070754 61 202 9.0 18.0 0.00 0.00 0.00 81 999.4
20260505070553 61 219 6.0 17.0 0.00 0.00 0.00 81 999.6
20260505070353 61 223 8.0 16.0 0.00 0.00 0.00 81 999.4
20260505070153 61 224 8.0 20.0 0.00 0.00 0.00 81 999.5
20260505065952 61 227 7.0 20.0 0.00 0.00 0.00 81 999.5
20260505065752 61 220 6.0 20.0 0.00 0.00 0.00 81 999.4
20260505065552 61 213 7.0 20.0 0.00 0.00 0.00 81 999.5
20260505065352 61 217 7.0 20.0 0.00 0.00 0.00 81 999.5
20260505065151 61 216 7.0 16.0 0.00 0.00 0.00 81 999.5
20260505064951 61 226 8.0 16.0 0.00 0.00 0.00 81 999.5
20260505064751 61 222 7.0 15.0 0.00 0.00 0.00 81 999.5
20260505064550 61 206 7.0 15.0 0.00 0.00 0.00 81 999.6
20260505064350 61 214 7.0 17.0 0.00 0.00 0.00 81 999.7
20260505064150 61 225 7.0 17.0 0.00 0.00 0.00 81 999.6
20260505063949 61 223 6.0 17.0 0.00 0.00 0.00 81 999.7
20260505063749 61 208 8.0 17.0 0.00 0.00 0.00 80 999.7
20260505063549 61 211 7.0 17.0 0.00 0.00 0.00 81 999.8
20260505063349 61 223 5.0 11.0 0.00 0.00 0.00 80 999.7
20260505063148 61 223 6.0 11.0 0.00 0.00 0.00 80 999.7
20260505062948 61 220 6.0 13.0 0.00 0.00 0.00 80 999.8
20260505062748 61 209 5.0 15.0 0.00 0.00 0.00 80 999.8
20260505062547 61 218 5.0 18.0 0.00 0.00 0.00 80 999.9
20260505062347 61 235 5.0 18.0 0.00 0.00 0.00 80 999.8
20260505062147 61 224 7.0 18.0 0.00 0.00 0.00 80 999.8
20260505061946 61 225 7.0 18.0 0.00 0.00 0.00 80 999.9
20260505061746 61 215 6.0 18.0 0.00 0.00 0.00 80 999.8
20260505061546 61 213 5.0 14.0 0.00 0.00 0.00 80 1000.0
20260505061345 61 221 5.0 14.0 0.00 0.00 0.00 80 1000.0
20260505061145 61 210 6.0 14.0 0.00 0.00 0.00 80 1000.0
20260505060945 61 212 7.0 14.0 0.00 0.00 0.00 81 1000.0
20260505060745 61 217 7.0 14.0 0.00 0.00 0.00 81 1000.0
20260505060544 60 222 6.0 14.0 0.00 0.00 0.00 81 1000.0
20260505060344 60 222 5.0 14.0 0.00 0.00 0.00 81 1000.0
20260505060144 60 220 5.0 14.0 0.00 0.00 0.00 81 1000.1
20260505055943 60 210 6.0 14.0 0.00 0.00 0.00 81 1000.1
20260505055743 60 209 5.0 14.0 0.00 0.00 0.00 81 1000.1
20260505055543 60 220 6.0 14.0 0.00 0.00 0.00 81 1000.1
20260505055342 60 216 8.0 14.0 0.00 0.00 0.00 81 1000.2
20260505055142 60 215 7.0 14.0 0.00 0.00 0.00 81 1000.2
20260505054942 60 224 5.0 15.0 0.00 0.00 0.00 80 1000.2
20260505054742 60 220 5.0 15.0 0.00 0.00 0.00 80 1000.2
20260505054541 60 212 5.0 15.0 0.00 0.00 0.00 80 1000.2
20260505054341 60 217 7.0 16.0 0.00 0.00 0.00 80 1000.2
20260505054141 60 223 5.0 16.0 0.00 0.00 0.00 80 1000.2
20260505053940 60 214 7.0 18.0 0.00 0.00 0.00 79 1000.3
20260505053740 60 214 8.0 19.0 0.00 0.00 0.00 79 1000.3
20260505053540 60 208 7.0 19.0 0.00 0.00 0.00 79 1000.3
20260505053339 60 211 8.0 19.0 0.00 0.00 0.00 79 1000.3
20260505053139 60 204 9.0 19.0 0.00 0.00 0.00 79 1000.3
20260505052939 60 218 6.0 15.0 0.00 0.00 0.00 80 1000.4
20260505052739 60 229 4.0 13.0 0.00 0.00 0.00 80 1000.4
20260505052538 60 235 6.0 13.0 0.00 0.00 0.00 80 1000.5
20260505052338 60 215 5.0 13.0 0.00 0.00 0.00 80 1000.4
20260505052138 60 219 5.0 16.0 0.00 0.00 0.00 81 1000.4
20260505051937 60 197 5.0 17.0 0.00 0.00 0.00 81 1000.5
20260505051737 60 209 6.0 17.0 0.00 0.00 0.00 81 1000.5
20260505051537 60 214 7.0 17.0 0.00 0.00 0.00 81 1000.4
20260505051337 60 209 6.0 17.0 0.00 0.00 0.00 80 1000.5
20260505051136 60 228 7.0 17.0 0.00 0.00 0.00 80 1000.4
20260505050936 60 244 5.0 15.0 0.00 0.00 0.00 80 1000.4
20260505050736 60 238 4.0 13.0 0.00 0.00 0.00 80 1000.3
20260505050535 60 217 5.0 17.0 0.00 0.00 0.00 80 1000.3
20260505050335 60 215 5.0 21.0 0.00 0.00 0.00 80 1000.3
20260505050135 60 221 6.0 21.0 0.00 0.00 0.00 79 1000.4
20260505041728 62 218 8.0 21.0 0.00 0.00 0.00 77 1000.7
20260505041528 62 214 6.0 17.0 0.00 0.00 0.00 77 1000.7
20260505041327 62 227 7.0 17.0 0.00 0.00 0.00 76 1000.7
20260505041127 62 205 6.0 17.0 0.00 0.00 0.00 76 1000.6
20260505040927 62 221 7.0 19.0 0.00 0.00 0.00 76 1000.5
20260505040727 62 197 9.0 20.0 0.00 0.00 0.00 76 1000.4
20260505040526 62 171 9.0 20.0 0.00 0.00 0.00 76 1000.5
20260505040326 62 194 10.0 20.0 0.00 0.00 0.00 76 1000.5
20260505040126 62 201 10.0 20.0 0.00 0.00 0.00 76 1000.4
20260505035925 62 198 9.0 20.0 0.00 0.00 0.00 76 1000.5
20260505035725 62 208 6.0 20.0 0.00 0.00 0.00 76 1000.4
20260505035525 62 198 7.0 20.0 0.00 0.00 0.00 77 1000.4
20260505035324 62 192 8.0 20.0 0.00 0.00 0.00 77 1000.5
20260505035124 62 207 5.0 19.0 0.00 0.00 0.00 77 1000.5
20260505034924 62 230 6.0 17.0 0.00 0.00 0.00 78 1000.4
20260505034724 62 206 5.0 12.0 0.00 0.00 0.00 78 1000.4
20260505034523 62 218 5.0 12.0 0.00 0.00 0.00 78 1000.4
20260505034323 62 234 5.0 14.0 0.00 0.00 0.00 78 1000.4
20260505034123 62 215 6.0 14.0 0.00 0.00 0.00 78 1000.4
20260505033922 62 215 6.0 15.0 0.00 0.00 0.00 78 1000.4
20260505033722 62 222 7.0 15.0 0.00 0.00 0.00 77 1000.4
20260505033522 62 217 7.0 18.0 0.00 0.00 0.00 77 1000.5
20260505033321 62 216 7.0 18.0 0.00 0.00 0.00 77 1000.5
20260505033121 62 211 7.0 18.0 0.00 0.00 0.00 77 1000.4
20260505032921 62 220 6.0 18.0 0.00 0.00 0.00 77 1000.5
20260505032721 62 226 6.0 18.0 0.00 0.00 0.00 77 1000.5
20260505032520 62 226 5.0 17.0 0.00 0.00 0.00 77 1000.5
20260505032320 62 209 7.0 17.0 0.00 0.00 0.00 77 1000.5
20260505032120 62 221 8.0 17.0 0.00 0.00 0.00 77 1000.7
20260505031919 61 219 8.0 17.0 0.00 0.00 0.00 77 1000.7
20260505031719 61 213 9.0 15.0 0.00 0.00 0.00 78 1000.7
20260505031519 61 218 7.0 19.0 0.00 0.00 0.00 78 1000.7
20260505031318 61 216 7.0 19.0 0.00 0.00 0.00 78 1000.8
20260505031118 61 215 8.0 19.0 0.00 0.00 0.00 78 1000.9
20260505030918 61 214 10.0 19.0 0.00 0.00 0.00 78 1001.0
20260505030718 61 208 10.0 19.0 0.00 0.00 0.00 78 1001.0
20260505030517 61 203 8.0 19.0 0.00 0.00 0.00 78 1001.1
20260505030317 60 209 8.0 18.0 0.00 0.00 0.00 78 1001.1
20260505030117 60 212 8.0 18.0 0.00 0.00 0.00 78 1001.1
20260505025916 60 216 6.0 18.0 0.00 0.00 0.00 78 1001.0
20260505025716 61 208 7.0 18.0 0.00 0.00 0.00 78 1001.0
20260505025516 61 212 9.0 18.0 0.00 0.00 0.00 78 1000.9
20260505025315 61 212 9.0 18.0 0.00 0.00 0.00 78 1001.0
20260505025115 61 211 8.0 16.0 0.00 0.00 0.00 78 1000.9
20260505024915 61 219 8.0 16.0 0.00 0.00 0.00 78 1001.0
20260505024715 61 216 8.0 16.0 0.00 0.00 0.00 77 1000.8
20260505024514 61 212 7.0 16.0 0.00 0.00 0.00 77 1000.9
20260505024314 61 213 6.0 14.0 0.00 0.00 0.00 77 1000.9
20260505024114 61 214 5.0 14.0 0.00 0.00 0.00 76 1000.9
20260505023913 61 207 6.0 14.0 0.00 0.00 0.00 76 1000.8
20260505023713 61 195 7.0 14.0 0.00 0.00 0.00 76 1000.8
20260505023513 61 218 6.0 15.0 0.00 0.00 0.00 76 1000.8
20260505023312 61 231 5.0 15.0 0.00 0.00 0.00 75 1000.9
20260505023112 61 218 6.0 16.0 0.00 0.00 0.00 75 1000.8
20260505022912 61 214 7.0 17.0 0.00 0.00 0.00 75 1000.8
20260505022711 62 215 7.0 18.0 0.00 0.00 0.00 74 1000.9
20260505022511 62 222 6.0 18.0 0.00 0.00 0.00 74 1000.9
20260505022311 62 221 7.0 18.0 0.00 0.00 0.00 74 1000.9
20260505022111 62 220 8.0 19.0 0.00 0.00 0.00 74 1000.9
20260505021910 62 215 9.0 19.0 0.00 0.00 0.00 74 1000.9
20260505021710 62 215 9.0 19.0 0.00 0.00 0.00 73 1000.9
20260505021510 62 213 11.0 19.0 0.00 0.00 0.00 73 1000.9
20260505021309 62 205 10.0 19.0 0.00 0.00 0.00 72 1001.0
20260505021109 62 207 9.0 19.0 0.00 0.00 0.00 72 1001.0
20260505020909 62 202 8.0 19.0 0.00 0.00 0.00 72 1000.9
20260505020708 62 201 8.0 22.0 0.00 0.00 0.00 71 1001.0
20260505020508 63 219 8.0 23.0 0.00 0.00 0.00 71 1001.0
20260505020308 63 224 8.0 23.0 0.00 0.00 0.00 70 1001.0
20260505020108 63 218 9.0 23.0 0.00 0.00 0.00 70 1001.0
20260505015907 63 209 9.0 23.0 0.00 0.00 0.00 70 1001.0
20260505015707 63 209 8.0 17.0 0.00 0.00 0.00 69 1001.1
20260505015507 63 224 6.0 17.0 0.00 0.00 0.00 68 1001.0
20260505015306 63 223 7.0 16.0 0.00 0.00 0.00 68 1001.1
20260505015106 64 216 8.0 16.0 0.00 0.00 0.00 68 1001.1
20260505014906 64 221 7.0 15.0 0.00 0.00 0.00 67 1001.1
20260505014705 64 220 7.0 15.0 0.00 0.00 0.00 66 1001.0
20260505014505 64 221 7.0 16.0 0.00 0.00 0.00 65 1001.0
20260505014307 64 221 7.0 16.0 0.00 0.00 0.00 64 1000.9
20260505014105 64 224 6.0 16.0 0.00 0.00 0.00 63 1000.9
20260505013904 64 219 8.0 17.0 0.00 0.00 0.00 63 1000.9
20260505013704 64 210 9.0 33.0 0.00 0.00 0.00 62 1001.1
20260505013504 65 211 10.0 33.0 0.00 0.00 0.00 61 1001.1
20260505013303 65 220 8.0 33.0 0.00 0.00 0.00 61 1001.1
20260505013103 65 213 10.0 33.0 0.00 0.00 0.00 60 1001.1
20260505012903 65 213 11.0 33.0 0.00 0.00 0.00 60 1001.2
20260505012702 65 206 8.0 17.0 0.00 0.00 0.00 60 1001.1
20260505012502 65 213 8.0 17.0 0.00 0.00 0.00 59 1001.1
20260505012304 65 215 6.0 15.0 0.00 0.00 0.00 59 1001.1
20260505012102 65 218 6.0 15.0 0.00 0.00 0.00 59 1001.0
20260505011901 65 219 5.0 15.0 0.00 0.00 0.00 59 1000.9
20260505011701 65 213 6.0 15.0 0.00 0.00 0.00 59 1000.8
20260505011501 65 210 4.0 15.0 0.00 0.00 0.00 59 1000.8
20260505011300 65 217 6.0 13.0 0.00 0.00 0.00 58 1000.8
20260505011100 65 210 5.0 13.0 0.00 0.00 0.00 58 1000.8
20260505010900 65 210 5.0 13.0 0.00 0.00 0.00 58 1000.8
20260505010659 65 211 5.0 13.0 0.00 0.00 0.00 57 1000.8
20260505010459 65 218 4.0 13.0 0.00 0.00 0.00 57 1000.8
20260505010259 65 218 6.0 13.0 0.00 0.00 0.00 56 1000.8
20260505010059 65 220 6.0 13.0 0.00 0.00 0.00 56 1000.8
20260505005858 65 225 4.0 10.0 0.00 0.00 0.00 55 1000.7
20260505005658 65 233 2.0 12.0 0.00 0.00 0.00 55 1000.8
20260505005458 66 224 2.0 12.0 0.00 0.00 0.00 54 1000.7
20260505005257 66 224 3.0 12.0 0.00 0.00 0.00 54 1000.7
20260505005057 66 220 3.0 12.0 0.00 0.00 0.00 54 1000.8
20260505004857 66 213 5.0 12.0 0.00 0.00 0.00 54 1000.8
20260505004656 66 221 4.0 10.0 0.00 0.00 0.00 53 1000.7
20260505004456 66 226 4.0 8.0 0.00 0.00 0.00 53 1000.7
20260505004256 66 223 4.0 7.0 0.00 0.00 0.00 52 1000.7
20260505004056 66 220 3.0 9.0 0.00 0.00 0.00 52 1000.7
20260505003855 66 220 4.0 12.0 0.00 0.00 0.00 52 1000.7
20260505003655 67 212 4.0 12.0 0.00 0.00 0.00 52 1000.7
20260505003455 67 214 5.0 12.0 0.00 0.00 0.00 51 1000.7
20260505003254 67 211 6.0 12.0 0.00 0.00 0.00 51 1000.7
20260505003054 67 209 4.0 12.0 0.00 0.00 0.00 51 1000.7
20260505002854 67 205 4.0 10.0 0.00 0.00 0.00 50 1000.7
20260505002653 67 201 4.0 10.0 0.00 0.00 0.00 50 1000.7
20260505002453 67 198 4.0 10.0 0.00 0.00 0.00 50 1000.7
20260505002253 67 218 4.0 12.0 0.00 0.00 0.00 49 1000.7
20260505002053 67 211 6.0 12.0 0.00 0.00 0.00 49 1000.7
20260505001852 68 218 5.0 12.0 0.00 0.00 0.00 49 1000.7
20260505001652 68 214 5.0 12.0 0.00 0.00 0.00 49 1000.7
20260505001452 68 221 4.0 12.0 0.00 0.00 0.00 48 1000.7
20260505001251 68 221 3.0 11.0 0.00 0.00 0.00 48 1000.7
20260505001051 68 218 4.0 11.0 0.00 0.00 0.00 48 1000.7
20260505000851 68 220 5.0 11.0 0.00 0.00 0.00 48 1000.7
20260505000650 68 226 5.0 11.0 0.00 0.00 0.00 47 1000.7
20260505000450 68 244 3.0 11.0 0.00 0.00 0.00 47 1000.8
20260505000250 68 232 5.0 11.0 0.00 0.00 0.00 46 1000.8
20260505000050 68 227 4.0 11.0 0.00 0.00 0.00 46 1000.7
20260504235849 68 231 4.0 11.0 0.00 0.00 0.00 46 1000.7
20260504235649 68 213 5.0 13.0 0.00 0.00 0.00 46 1000.7
20260504235449 69 215 5.0 14.0 0.00 0.00 0.00 45 1000.7
20260504235248 69 211 4.0 14.0 0.00 0.00 0.00 45 1000.7
20260504235048 69 213 4.0 14.0 0.00 0.00 0.00 45 1000.7
20260504234848 69 215 4.0 14.0 0.00 0.00 0.00 45 1000.8
20260504234647 69 222 3.0 14.0 0.00 0.00 0.00 44 1000.8
20260504234447 69 226 4.0 11.0 0.00 0.00 0.00 44 1000.8
20260504234247 69 218 4.0 16.0 0.00 0.00 0.00 44 1000.8
20260504234047 69 225 5.0 16.0 0.00 0.00 0.00 43 1000.9
20260504233846 69 224 5.0 16.0 0.00 0.00 0.00 43 1001.0
20260504233646 69 210 6.0 16.0 0.00 0.00 0.00 43 1001.0
20260504233446 69 203 7.0 16.0 0.00 0.00 0.00 42 1001.1
20260504233245 70 215 6.0 17.0 0.00 0.00 0.00 42 1001.1
20260504233045 70 198 5.0 17.0 0.00 0.00 0.00 42 1001.3
20260504232845 70 206 6.0 19.0 0.00 0.00 0.00 41 1001.2
20260504232644 70 211 8.0 19.0 0.00 0.00 0.00 41 1001.2
20260504232444 70 205 7.0 24.0 0.00 0.00 0.00 41 1001.3
20260504232244 70 207 8.0 24.0 0.00 0.00 0.00 40 1001.2
20260504232044 70 227 6.0 24.0 0.00 0.00 0.00 40 1001.1
20260504231843 70 231 5.0 24.0 0.00 0.00 0.00 40 1001.3
20260504231643 70 196 7.0 24.0 0.00 0.00 0.00 40 1001.3
20260504231443 70 161 8.0 24.0 0.00 0.00 0.00 39 1001.1
20260504231242 70 162 7.0 19.0 0.00 0.00 0.00 39 1001.4
20260504231042 70 205 7.0 20.0 0.00 0.00 0.00 39 1001.3
20260504230842 70 219 7.0 20.0 0.00 0.00 0.00 39 1001.5
20260504230641 70 189 7.0 20.0 0.00 0.00 0.00 38 1001.3
20260504230441 71 202 8.0 30.0 0.00 0.00 0.00 38 1001.5
20260504230241 71 204 10.0 30.0 0.00 0.00 0.00 38 1001.4
20260504230040 71 213 8.0 30.0 0.00 0.00 0.00 38 1001.4
20260504225840 71 185 8.0 30.0 0.00 0.00 0.00 38 1001.5
20260504225640 71 184 10.0 30.0 0.00 0.00 0.00 38 1001.5
20260504225440 71 197 10.0 30.0 0.00 0.00 0.00 38 1001.5
20260504225239 71 204 7.0 27.0 0.00 0.00 0.00 39 1001.7
20260504225039 71 214 6.0 27.0 0.00 0.00 0.00 40 1001.7
20260504224839 71 219 5.0 27.0 0.00 0.00 0.00 40 1001.7
20260504224638 71 204 8.0 27.0 0.00 0.00 0.00 39 1001.7
20260504224438 71 188 11.0 28.0 0.00 0.00 0.00 38 1001.7
20260504224238 71 191 11.0 29.0 0.00 0.00 0.00 38 1001.7
20260504224038 71 215 7.0 29.0 0.00 0.00 0.00 38 1001.6
20260504223837 71 215 8.0 29.0 0.00 0.00 0.00 39 1001.7
20260504223637 72 179 10.0 29.0 0.00 0.00 0.00 38 1001.8
20260504223437 72 160 9.0 29.0 0.00 0.00 0.00 38 1001.8
20260504223236 72 210 8.0 29.0 0.00 0.00 0.00 38 1001.8
20260504223036 72 219 6.0 29.0 0.00 0.00 0.00 38 1001.7
20260504222836 72 221 8.0 29.0 0.00 0.00 0.00 38 1001.7
20260504222635 72 205 8.0 29.0 0.00 0.00 0.00 38 1001.8
20260504222435 72 195 11.0 29.0 0.00 0.00 0.00 38 1001.8
20260504222235 73 200 11.0 27.0 0.00 0.00 0.00 38 1001.8
20260504222035 73 207 10.0 27.0 0.00 0.00 0.00 37 1001.8
20260504221834 73 204 11.0 27.0 0.00 0.00 0.00 37 1001.6
20260504221634 73 212 10.0 27.0 0.00 0.00 0.00 37 1001.8
20260504221434 74 183 9.0 20.0 0.00 0.00 0.00 38 1001.7
20260504221233 74 190 8.0 20.0 0.00 0.00 0.00 37 1001.7
20260504221033 74 205 7.0 20.0 0.00 0.00 0.00 38 1001.9
20260504220833 74 211 7.0 20.0 0.00 0.00 0.00 38 1001.6
20260504220632 74 209 9.0 25.0 0.00 0.00 0.00 38 1001.7
20260504220432 74 215 7.0 25.0 0.00 0.00 0.00 39 1001.7
20260504220232 74 225 7.0 25.0 0.00 0.00 0.00 40 1001.7
20260504220031 73 192 7.0 25.0 0.00 0.00 0.00 40 1001.7
20260504215831 73 206 10.0 25.0 0.00 0.00 0.00 39 1001.6
20260504215631 73 191 12.0 25.0 0.00 0.00 0.00 39 1001.7
20260504215431 73 195 11.0 20.0 0.00 0.00 0.00 38 1001.7
20260504215230 73 209 8.0 32.0 0.00 0.00 0.00 40 1001.7
20260504215030 73 195 8.0 32.0 0.00 0.00 0.00 40 1001.7
20260504214830 73 231 8.0 32.0 0.00 0.00 0.00 40 1001.8
20260504214629 73 168 10.0 32.0 0.00 0.00 0.00 40 1001.7
20260504214429 73 194 11.0 32.0 0.00 0.00 0.00 39 1001.8
20260504214229 73 210 11.0 23.0 0.00 0.00 0.00 39 1001.8
20260504214028 73 199 9.0 23.0 0.00 0.00 0.00 39 1001.7
20260504213828 73 188 9.0 23.0 0.00 0.00 0.00 40 1001.8
20260504213628 73 210 9.0 23.0 0.00 0.00 0.00 40 1001.7
20260504213428 73 208 9.0 23.0 0.00 0.00 0.00 40 1001.8
20260504213227 73 191 10.0 23.0 0.00 0.00 0.00 40 1001.6
20260504213027 73 223 11.0 23.0 0.00 0.00 0.00 40 1001.7
20260504212827 73 219 10.0 23.0 0.00 0.00 0.00 40 1001.8
20260504212626 73 220 9.0 24.0 0.00 0.00 0.00 41 1001.8
20260504212426 73 179 9.0 27.0 0.00 0.00 0.00 40 1001.8
20260504212226 73 177 9.0 27.0 0.00 0.00 0.00 40 1001.6
20260504212025 73 208 11.0 27.0 0.00 0.00 0.00 40 1001.6
20260504211825 73 195 9.0 28.0 0.00 0.00 0.00 40 1001.6
20260504211625 73 200 12.0 28.0 0.00 0.00 0.00 41 1001.7
20260504211425 73 180 10.0 28.0 0.00 0.00 0.00 41 1001.7
20260504211224 73 183 11.0 28.0 0.00 0.00 0.00 41 1001.6
20260504211024 73 201 9.0 28.0 0.00 0.00 0.00 41 1001.6
20260504210824 73 191 9.0 25.0 0.00 0.00 0.00 41 1001.7
20260504210623 73 200 11.0 25.0 0.00 0.00 0.00 41 1001.6
20260504210423 73 216 9.0 23.0 0.00 0.00 0.00 42 1001.6
20260504210223 74 162 9.0 21.0 0.00 0.00 0.00 41 1001.6
20260504210022 74 166 8.0 21.0 0.00 0.00 0.00 41 1001.5
20260504205822 74 201 8.0 22.0 0.00 0.00 0.00 41 1001.6
20260504205622 74 202 8.0 25.0 0.00 0.00 0.00 42 1001.5
20260504205422 74 210 8.0 26.0 0.00 0.00 0.00 42 1001.6
20260504205221 74 228 9.0 26.0 0.00 0.00 0.00 41 1001.5
20260504205021 74 187 11.0 26.0 0.00 0.00 0.00 41 1001.6
20260504204821 74 162 10.0 26.0 0.00 0.00 0.00 41 1001.6
20260504204620 74 185 9.0 26.0 0.00 0.00 0.00 43 1001.5
20260504204420 74 210 8.0 26.0 0.00 0.00 0.00 43 1001.6
20260504204220 74 213 9.0 33.0 0.00 0.00 0.00 43 1001.5
20260504204019 74 207 8.0 33.0 0.00 0.00 0.00 43 1001.4
20260504203819 74 199 9.0 33.0 0.00 0.00 0.00 43 1001.6
20260504203619 74 216 10.0 33.0 0.00 0.00 0.00 43 1001.5
20260504203419 74 189 12.0 33.0 0.00 0.00 0.00 42 1001.6
20260504203218 74 198 11.0 26.0 0.00 0.00 0.00 42 1001.5
20260504203018 74 200 11.0 26.0 0.00 0.00 0.00 42 1001.5
20260504202818 74 191 9.0 27.0 0.00 0.00 0.00 42 1001.6
20260504202617 74 188 9.0 27.0 0.00 0.00 0.00 43 1001.6
20260504202417 74 213 9.0 27.0 0.00 0.00 0.00 43 1001.6
20260504202217 74 194 12.0 27.0 0.00 0.00 0.00 42 1001.4
20260504202016 74 189 10.0 27.0 0.00 0.00 0.00 42 1001.6
20260504201816 74 196 8.0 21.0 0.00 0.00 0.00 43 1001.4
20260504201616 74 197 9.0 21.0 0.00 0.00 0.00 43 1001.7
20260504201416 74 186 9.0 21.0 0.00 0.00 0.00 43 1001.8
20260504201215 74 186 10.0 20.0 0.00 0.00 0.00 43 1001.7
20260504201015 74 192 9.0 21.0 0.00 0.00 0.00 44 1001.6
20260504200815 74 216 6.0 21.0 0.00 0.00 0.00 45 1001.7
20260504200614 74 192 8.0 21.0 0.00 0.00 0.00 45 1001.7
20260504200414 74 193 8.0 21.0 0.00 0.00 0.00 45 1001.7
20260504200214 74 227 10.0 21.0 0.00 0.00 0.00 44 1001.7
20260504200013 74 213 10.0 20.0 0.00 0.00 0.00 44 1001.7
20260504195813 74 210 9.0 29.0 0.00 0.00 0.00 45 1002.1
20260504195613 74 229 8.0 29.0 0.00 0.00 0.00 46 1001.7
20260504195413 74 226 8.0 29.0 0.00 0.00 0.00 45 1001.7
20260504195212 74 199 9.0 29.0 0.00 0.00 0.00 45 1001.8
20260504195012 74 208 11.0 29.0 0.00 0.00 0.00 45 1001.9
20260504194812 74 220 10.0 21.0 0.00 0.00 0.00 45 1001.9
20260504194611 74 198 9.0 19.0 0.00 0.00 0.00 45 1001.9
20260504194411 74 205 9.0 19.0 0.00 0.00 0.00 44 1001.8
20260504194211 74 196 9.0 19.0 0.00 0.00 0.00 47 1001.9
20260504194010 74 198 7.0 30.0 0.00 0.00 0.00 47 1001.9
20260504193810 74 212 7.0 30.0 0.00 0.00 0.00 48 1002.0
20260504193610 73 197 8.0 30.0 0.00 0.00 0.00 48 1001.9
20260504193410 73 178 12.0 30.0 0.00 0.00 0.00 47 1001.9
20260504193209 73 174 12.0 30.0 0.00 0.00 0.00 46 1002.0
20260504193009 73 200 11.0 28.0 0.00 0.00 0.00 46 1002.0
20260504192809 73 225 9.0 26.0 0.00 0.00 0.00 47 1002.1
20260504192608 73 224 10.0 26.0 0.00 0.00 0.00 47 1002.0
20260504192408 73 210 13.0 26.0 0.00 0.00 0.00 48 1002.2
20260504192208 73 205 7.0 26.0 0.00 0.00 0.00 48 1002.1
20260504192007 73 200 8.0 20.0 0.00 0.00 0.00 49 1002.2
20260504191807 73 213 13.0 24.0 0.00 0.00 0.00 49 1002.2
20260504191607 73 220 8.0 24.0 0.00 0.00 0.00 49 1002.3
20260504191406 72 214 8.0 30.0 0.00 0.00 0.00 50 1002.2
20260504191206 72 194 9.0 30.0 0.00 0.00 0.00 50 1002.1
20260504191006 72 186 11.0 30.0 0.00 0.00 0.00 50 1002.3
20260504190806 72 196 12.0 30.0 0.00 0.00 0.00 50 1002.3
20260504190605 72 203 13.0 30.0 0.00 0.00 0.00 49 1002.4
20260504190405 72 212 11.0 25.0 0.00 0.00 0.00 49 1002.3
20260504190205 72 217 9.0 25.0 0.00 0.00 0.00 49 1002.4
20260504190004 72 227 8.0 24.0 0.00 0.00 0.00 50 1002.5
20260504185804 72 234 9.0 24.0 0.00 0.00 0.00 48 1002.4
20260504185604 72 223 11.0 24.0 0.00 0.00 0.00 50 1002.4
20260504185403 72 220 10.0 24.0 0.00 0.00 0.00 49 1002.5
20260504185203 72 222 10.0 25.0 0.00 0.00 0.00 50 1002.4
20260504185003 73 222 9.0 25.0 0.00 0.00 0.00 49 1002.5
20260504184803 73 214 10.0 25.0 0.00 0.00 0.00 50 1002.5
20260504184602 73 219 8.0 25.0 0.00 0.00 0.00 50 1002.4
20260504184402 73 197 8.0 19.0 0.00 0.00 0.00 52 1002.5
20260504184202 72 204 7.0 20.0 0.00 0.00 0.00 52 1002.5
20260504184001 72 206 5.0 20.0 0.00 0.00 0.00 53 1002.6
20260504183801 71 202 7.0 22.0 0.00 0.00 0.00 53 1002.5
20260504183601 71 209 10.0 23.0 0.00 0.00 0.00 51 1002.6
20260504183400 71 211 10.0 27.0 0.00 0.00 0.00 51 1002.9
20260504183200 71 210 8.0 27.0 0.00 0.00 0.00 51 1002.7
20260504183000 71 221 10.0 27.0 0.00 0.00 0.00 52 1002.5
20260504182800 71 221 11.0 27.0 0.00 0.00 0.00 50 1002.8
20260504182559 71 205 12.0 27.0 0.00 0.00 0.00 51 1002.8
20260504182359 71 218 10.0 22.0 0.00 0.00 0.00 51 1002.8
20260504182159 71 214 9.0 22.0 0.00 0.00 0.00 51 1002.6
20260504181958 71 219 9.0 22.0 0.00 0.00 0.00 52 1002.7
20260504181758 71 205 12.0 22.0 0.00 0.00 0.00 52 1002.7
20260504181558 71 206 11.0 22.0 0.00 0.00 0.00 50 1002.8
20260504181357 71 221 9.0 22.0 0.00 0.00 0.00 50 1002.9
20260504181157 71 207 9.0 24.0 0.00 0.00 0.00 51 1003.0
20260504180957 72 203 8.0 24.0 0.00 0.00 0.00 51 1002.7
20260504180757 72 215 9.0 24.0 0.00 0.00 0.00 51 1002.7
20260504180556 72 217 10.0 24.0 0.00 0.00 0.00 51 1002.8
20260504180356 71 184 10.0 25.0 0.00 0.00 0.00 52 1002.7
20260504180156 72 207 8.0 25.0 0.00 0.00 0.00 51 1002.9
20260504175955 71 217 8.0 25.0 0.00 0.00 0.00 51 1002.9
20260504175755 71 205 11.0 25.0 0.00 0.00 0.00 52 1003.0
20260504175555 71 217 9.0 25.0 0.00 0.00 0.00 51 1003.0
20260504175354 71 217 10.0 22.0 0.00 0.00 0.00 51 1003.2
20260504175154 72 222 7.0 22.0 0.00 0.00 0.00 51 1003.3
20260504174954 71 224 10.0 22.0 0.00 0.00 0.00 52 1003.3
20260504174754 71 213 10.0 22.0 0.00 0.00 0.00 52 1003.2
20260504174553 71 200 7.0 22.0 0.00 0.00 0.00 52 1003.1
20260504174353 71 215 8.0 21.0 0.00 0.00 0.00 53 1003.2
20260504174153 71 222 10.0 21.0 0.00 0.00 0.00 52 1003.3
20260504173952 71 216 10.0 21.0 0.00 0.00 0.00 53 1003.3
20260504173752 71 217 11.0 21.0 0.00 0.00 0.00 52 1003.4
20260504173552 71 221 10.0 19.0 0.00 0.00 0.00 52 1003.5
20260504173351 71 202 9.0 20.0 0.00 0.00 0.00 52 1003.4
20260504173151 71 216 7.0 20.0 0.00 0.00 0.00 54 1003.5
20260504172951 71 189 7.0 20.0 0.00 0.00 0.00 53 1003.5
20260504172751 71 214 8.0 20.0 0.00 0.00 0.00 53 1003.5
20260504172550 71 234 8.0 20.0 0.00 0.00 0.00 52 1003.7
20260504172350 71 250 6.0 20.0 0.00 0.00 0.00 53 1003.5
20260504172150 71 218 7.0 20.0 0.00 0.00 0.00 53 1003.5
20260504171949 71 203 8.0 20.0 0.00 0.00 0.00 54 1003.7
20260504171749 71 190 7.0 20.0 0.00 0.00 0.00 54 1003.6
20260504171549 70 221 8.0 20.0 0.00 0.00 0.00 54 1003.6
20260504171348 70 213 8.0 16.0 0.00 0.00 0.00 54 1003.7
20260504171148 70 212 7.0 16.0 0.00 0.00 0.00 55 1003.7